Home > Weather > Differdange > Past weeks

Flag for Luxembourg Past Weather in Differdange, Luxembourg — Yesterday and Last 2 Weeks

Now
91 °F

Passing clouds.


Feels Like: 91 °F
Forecast: 67 / 87 °F
Wind: 5 mph from South

Location: Luxembourg Airport

Current Time: Aug 26, 2016 at 4:04:49 PM

Latest Report: Aug 26, 2016 at 3:20 PM


Visibility: N/A

Pressure: 30.07 "Hg

Humidity: 34%

Dew Point: 59 °F

Location of DifferdangeLocation

Past Weather in Differdange — Graph

°F

Differdange Temperature Yesterday

Maximum temperature yesterday: 88 °F (at 3:50 PM)
Minimum temperature yesterday: 64 °F (at 5:50 AM)
Average temperature yesterday: 77 °F

High & Low Weather Summary for the Past Weeks

 TemperatureHumidityPressure
High91 °F (Aug 26, 1:50 PM)100% (Aug 19, 2:50 AM)30.39 "Hg (Aug 19, 2:50 AM)
Low52 °F (Aug 22, 3:50 AM)29% (Aug 24, 4:20 PM)29.83 "Hg (Aug 18, 4:20 AM)
Average67 °F68%30.11 "Hg
* Reported Aug 11 2:20 PM — Aug 26 2:50 PM, Differdange, Weather by CustomWeather, © 2016

Note: Actual official high and low records may vary slightly from our data, if they occured in-between our weather recording intervals... More about our weather records

Advertising

Differdange Weather History for the Previous 24 Hours

Scroll right to see more
 ConditionsComfort  
Time TempWeatherWind HumidityBarometerVisibility
2:50 PM
Fri, Aug 26
91 °FPassing clouds.5 mph34%30.07 "HgN/A
2:20 PM91 °FHot.5 mph34%30.07 "HgN/A
1:50 PM91 °FPassing clouds.5 mph36%30.07 "HgN/A
1:20 PM90 °FPassing clouds.5 mph38%30.07 "HgN/A
12:50 PM88 °FPassing clouds.3 mph43%30.07 "HgN/A
12:20 PM84 °FPassing clouds.5 mph51%30.07 "HgN/A
11:50 AM82 °FPassing clouds.3 mph58%30.07 "HgN/A
11:20 AM82 °FPassing clouds.3 mph58%30.07 "HgN/A
10:50 AM81 °FSunny.2 mph58%30.07 "Hg10 mi
10:20 AM79 °FSunny.2 mph61%30.07 "Hg10 mi
9:50 AM77 °FPassing clouds.3 mph61%30.07 "HgN/A
9:20 AM75 °FPassing clouds.3 mph65%30.07 "HgN/A
8:50 AM75 °FSunny.2 mph65%30.07 "Hg10 mi
8:20 AM72 °FSunny.2 mph69%30.07 "Hg10 mi
7:50 AM72 °FSunny.1 mph69%30.07 "Hg10 mi
7:20 AM68 °FClear.1 mph78%30.04 "Hg10 mi
6:50 AM68 °FClear.1 mph78%30.04 "Hg10 mi
6:20 AM70 °FClear.2 mph69%30.04 "Hg10 mi
5:50 AM70 °FClear.1 mph73%30.04 "Hg10 mi
5:20 AM70 °FClear.1 mph73%30.04 "Hg10 mi
4:50 AM70 °FMild.2 mph69%30.04 "HgN/A
4:20 AM72 °FMild.2 mph65%30.04 "HgN/A
3:50 AM73 °FMild.2 mph61%30.04 "HgN/A
3:20 AM73 °FMild.2 mph61%30.04 "HgN/A
2:50 AM72 °FMild.1 mph69%30.04 "HgN/A
2:20 AM72 °FMild.2 mph69%30.04 "HgN/A
1:50 AM73 °FMild.3 mph65%30.04 "HgN/A
1:20 AM75 °FMild.2 mph61%30.04 "HgN/A
12:50 AM75 °FMild.3 mph61%30.04 "HgN/A
12:20 AM77 °FClear.5 mph57%30.04 "Hg10 mi
11:50 PM
Thu, Aug 25
77 °FClear.5 mph57%30.04 "Hg10 mi
11:20 PM79 °FClear.3 mph54%30.04 "Hg10 mi
10:50 PM79 °FClear.3 mph54%30.04 "Hg10 mi
10:20 PM79 °FClear.3 mph54%30.04 "Hg10 mi
9:50 PM81 °FClear.3 mph51%30.04 "Hg10 mi
9:20 PM81 °FSunny.5 mph48%30.04 "Hg10 mi
8:50 PM82 °FSunny.5 mph45%30.01 "Hg10 mi
8:20 PM84 °FSunny.5 mph43%30.01 "Hg10 mi
7:50 PM86 °FSunny.2 mph40%30.01 "Hg10 mi
7:20 PM88 °FSunny.3 mph35%30.01 "Hg10 mi
6:50 PM88 °FPassing clouds.5 mph33%30.01 "HgN/A
6:20 PM88 °FSunny.5 mph31%30.04 "Hg10 mi
5:50 PM88 °FPassing clouds.6 mph31%30.04 "HgN/A
5:20 PM88 °FPassing clouds.5 mph31%30.04 "HgN/A
4:50 PM88 °FPassing clouds.6 mph33%30.04 "HgN/A
4:20 PM88 °FPassing clouds.5 mph31%30.04 "HgN/A
Weather by CustomWeather, © 2016

See weather overviewHow to use our weather pages